Weather History for KARR - November, 2012

Change the Weather History Date:

Thursday, November 22, 2012

  Actual Average Record
Temperature  
Mean Temperature 49 °F 35 °F  
Max Temperature 63 °F 44 °F 67 °F (2010)
Min Temperature 34 °F 26 °F 9 °F (2000)
Degree Days  
Heating Degree Days 16 30  
Month to date heating degree days 551 547  
Since 1 July heating degree days 1242 1154  
Cooling Degree Days 0 0  
Month to date cooling degree days 0 0  
Year to date cooling degree days 1007 655  
Moisture  
Dew Point 41 °F    
Average Humidity 76    
Maximum Humidity 100    
Minimum Humidity 52    
Precipitation  
Precipitation 0.19 in 0.09 in 1.61 in (2010)
Month to date precipitation 1.06 2.40  
Year to date precipitation 22.55 34.16  
Sea Level Pressure  
Sea Level Pressure 29.98 in    
Wind  
Wind Speed 14 mph (South)    
Max Wind Speed 29 mph    
Max Gust Speed 38 mph    
Visibility 4 miles    
Events Fog , Rain    
T = Trace of Precipitation, MM = Missing Value Source: NWS Daily Summary

Daily Weather History Graph

Daily Weather History Graph

Search for Another Location

Airport or City:

Trip Planner

Search our weather history database for the weather conditions in past years. The results will help you decide how hot, cold, wet, or windy it might be!

Date:

Astronomy

Nov. 22, 2012 Rise Set
Actual Time 6:52 AM CST 4:27 PM CST
Civil Twilight 6:21 AM CST 4:58 PM CST
Nautical Twilight 5:47 AM CST 5:32 PM CST
Astronomical Twilight 5:14 AM CST 6:05 PM CST
Moon 1:17 PM CST (11/22) 1:07 AM CST (11/22)
Length of Visible Light 10h 36m
Length of Day
9h 35m
Waxing Gibbous, 71% of the Moon is Illuminated
Nov 22
Waxing Gibbous
Nov 28
Full
Dec 6
Last Quarter
Dec 13
New
Dec 19
First Quarter

Hourly Weather History & Observations

Time (CST) Temp. Windchill Dew Point Humidity Pressure Visibility Wind Dir Wind Speed Gust Speed Precip Events Conditions
12:03 AM 39.2 °F 35.0 °F 39.2 °F 100% 30.09 in 0.5 mi South 5.8 mph - N/A Fog Fog
12:10 AM 39.2 °F 34.2 °F 39.2 °F 100% 30.09 in 0.2 mi South 6.9 mph - N/A Fog Fog
12:20 AM 39.2 °F 35.0 °F 39.2 °F 100% 30.09 in 0.5 mi South 5.8 mph - N/A Fog Fog
12:39 AM 39.2 °F 34.2 °F 39.2 °F 100% 30.09 in 1.0 mi South 6.9 mph - N/A   Clear
12:52 AM 39.0 °F 34.8 °F 39.0 °F 100% 30.09 in 1.5 mi South 5.8 mph - N/A   Clear
1:12 AM 41.0 °F 36.4 °F 39.2 °F 93% 30.08 in 2.5 mi South 6.9 mph - N/A   Clear
1:23 AM 41.0 °F 37.1 °F 39.2 °F 93% 30.08 in 3.0 mi South 5.8 mph - N/A   Clear
1:35 AM 39.2 °F 35.9 °F 39.2 °F 100% 30.08 in 2.5 mi South 4.6 mph - N/A   Clear
1:52 AM 37.9 °F 33.5 °F 37.9 °F 100% 30.09 in 2.0 mi SSE 5.8 mph - N/A   Clear
1:59 AM 37.4 °F 34.9 °F 37.4 °F 100% 30.07 in 1.0 mi SSE 3.5 mph - N/A   Clear
2:06 AM 37.4 °F 34.9 °F 35.6 °F 93% 30.08 in 0.5 mi SSE 3.5 mph - N/A Fog Fog
2:14 AM 35.6 °F 32.8 °F 35.6 °F 100% 30.08 in 0.2 mi SE 3.5 mph - N/A Fog Fog
2:52 AM 35.1 °F 32.2 °F 35.1 °F 100% 30.08 in 0.2 mi SE 3.5 mph - N/A Fog Fog
3:52 AM 36.0 °F 32.1 °F 36.0 °F 100% 30.05 in 0.2 mi SE 4.6 mph - N/A Fog Fog
4:02 AM 37.4 °F 32.8 °F 37.4 °F 100% 30.04 in 0.5 mi SE 5.8 mph - N/A Fog Fog
4:15 AM 37.4 °F 32.1 °F 37.4 °F 100% 30.04 in 1.0 mi SSE 6.9 mph - N/A   Mist
4:24 AM 37.4 °F 30.8 °F 37.4 °F 100% 30.03 in 1.2 mi SSE 9.2 mph - N/A   Clear
4:52 AM 37.0 °F 32.4 °F 37.0 °F 100% 30.05 in 1.2 mi SSE 5.8 mph - N/A   Clear
5:52 AM 37.0 °F 31.6 °F 37.0 °F 100% 30.04 in 1.5 mi SSE 6.9 mph - N/A   Clear
6:52 AM 37.0 °F 31.6 °F 37.0 °F 100% 30.01 in 0.8 mi SE 6.9 mph - N/A   Clear
7:16 AM 39.2 °F 34.2 °F 39.2 °F 100% 30.00 in 1.2 mi South 6.9 mph - N/A   Clear
7:52 AM 42.1 °F 35.7 °F 41.0 °F 96% 30.00 in 2.5 mi South 11.5 mph - N/A   Clear
8:35 AM 46.4 °F 40.7 °F 44.6 °F 93% 29.98 in 3.0 mi South 12.7 mph - N/A   Clear
8:52 AM 48.0 °F - 45.0 °F 89% 29.99 in 3.0 mi South 12.7 mph - N/A   Clear
9:52 AM 54.0 °F - 46.9 °F 77% 29.97 in 6.0 mi South 15.0 mph 21.9 mph N/A   Haze
10:52 AM 57.0 °F - 45.0 °F 64% 29.95 in 8.0 mi South 15.0 mph - N/A   Scattered Clouds
11:52 AM 57.9 °F - 46.0 °F 65% 29.89 in 8.0 mi South 21.9 mph 27.6 mph 0.01 in   Mostly Cloudy
12:52 PM 60.1 °F - 45.0 °F 57% 29.86 in 9.0 mi South 13.8 mph 26.5 mph N/A   Mostly Cloudy
1:52 PM 62.1 °F - 45.0 °F 53% 29.83 in 10.0 mi SSW 17.3 mph 31.1 mph N/A   Scattered Clouds
2:52 PM 62.1 °F - 46.0 °F 56% 29.81 in 10.0 mi SSW 17.3 mph 31.1 mph N/A   Scattered Clouds
3:52 PM 55.9 °F - 50.0 °F 80% 29.85 in 4.0 mi SSW 19.6 mph 29.9 mph 0.02 in Rain Rain
4:52 PM 55.0 °F - 51.1 °F 86% 29.82 in 6.0 mi South 13.8 mph - 0.09 in Rain Light Rain
5:52 PM 55.0 °F - 50.0 °F 83% 29.84 in 6.0 mi South 15.0 mph - 0.06 in Rain Light Rain
6:52 PM 55.9 °F - 50.0 °F 80% 29.82 in 9.0 mi South 15.0 mph 23.0 mph 0.01 in   Overcast
7:52 PM 55.9 °F - 48.9 °F 77% 29.80 in 9.0 mi South 18.4 mph 24.2 mph N/A   Overcast
8:52 PM 55.0 °F - 48.9 °F 80% 29.80 in 10.0 mi SW 13.8 mph 20.7 mph N/A   Scattered Clouds
9:52 PM 48.0 °F - 42.1 °F 80% 29.83 in 10.0 mi West 25.3 mph 32.2 mph N/A   Clear
10:52 PM 42.1 °F 33.3 °F 37.0 °F 82% 29.88 in 10.0 mi West 19.6 mph 33.4 mph N/A   Clear
11:52 PM 39.0 °F 29.3 °F 35.1 °F 86% 29.92 in 10.0 mi West 19.6 mph 26.5 mph N/A   Clear